User: anonymous   Login
Location: North Smoke Tower Site
(30.5430°N, 82.3390°W)
Time: 14:00:39
(UTC-04:00)
Language:

Cosmos 1980 Rocket - Orbit

View from above orbital plane
View from above orbital plane
View from above satellite
View from above satellite

Ground track
Ground track

The orbit data is extracted from the following two-line orbital elements,

1 19650U 88102B   15241.70156249 -.00000157  00000-0 -55664-4 0  9992
2 19650 071.0009 317.5659 0011991 105.4180 254.8269 14.15722238382932
Epoch (UTC): 29 August 2015 16:50:14
Eccentricity: 0.0011991
inclination: 71.0009°
perigee height: 831 km
apogee height: 848 km
right ascension of ascending node: 317.5659°
argument of perigee: 105.4180°
revolutions per day: 14.15722238
mean anomaly at epoch: 254.8269°
orbit number at epoch: 38293

The dashed part of the orbit path shows where the satellite is in the earth's shadow,  

DLR